• In Kazakhstan
  • List of Countries
  • For 7 days
  • Water Temperature
  • Weather Map
  • News
  • Weather Widgets
  • user-avatar
    Login

    Hourly Weather Selfoss

    Today, 19 January, Sunday

    Time Temperature Precipitation Wind Pressure Humidity
    00:00 -1°C° 3.6 mm 11 mps 751 mmHg 96%
    01:00 0°C° 3.6 mm 12 mps 749 mmHg 97%
    02:00 0°C° 3.6 mm 13 mps 747 mmHg 97%
    03:00 +2°C° 1.5 mm 11 mps 745 mmHg 97%
    04:00 +2°C° 1.5 mm 10 mps 744 mmHg 97%
    05:00 +3°C° 0 mm 10 mps 743 mmHg 97%
    06:00 +3°C° 0.3 mm 11 mps 742 mmHg 95%
    07:00 +4°C° 0.3 mm 12 mps 742 mmHg 93%
    08:00 +4°C° 0.3 mm 13 mps 742 mmHg 91%
    09:00 +4°C° 0.3 mm 13 mps 742 mmHg 89%
    10:00 +3°C° 0.3 mm 13 mps 742 mmHg 86%
    11:00 +1°C° 0.3 mm 13 mps 743 mmHg 84%
    12:00 +1°C° 0.1 mm 13 mps 743 mmHg 84%
    13:00 +1°C° 0.1 mm 13 mps 744 mmHg 83%
    14:00 +1°C° 0.1 mm 13 mps 745 mmHg 83%
    15:00 +1°C° 0.1 mm 13 mps 746 mmHg 83%
    16:00 +3°C° 0.1 mm 13 mps 747 mmHg 84%
    17:00 +3°C° 0.1 mm 13 mps 747 mmHg 85%
    18:00 +2°C° 0.1 mm 11 mps 748 mmHg 83%
    19:00 +2°C° 0.1 mm 10 mps 749 mmHg 80%
    20:00 +1°C° 0.1 mm 8 mps 750 mmHg 78%
    21:00 +1°C° 0.2 mm 9 mps 750 mmHg 81%
    22:00 +1°C° 0.2 mm 9 mps 750 mmHg 85%
    23:00 +1°C° 0.2 mm 10 mps 750 mmHg 88%

    Tomorrow, 20 January, Monday

    Time Temperature Precipitation Wind Pressure Humidity
    00:00 +1°C° 0.6 mm 10 mps 750 mmHg 89%
    01:00 0°C° 0.6 mm 10 mps 749 mmHg 91%
    02:00 -1°C° 0.6 mm 11 mps 749 mmHg 92%
    03:00 -1°C° 0.6 mm 11 mps 749 mmHg 85%
    04:00 -2°C° 0.6 mm 11 mps 750 mmHg 77%
    05:00 -2°C° 0.6 mm 11 mps 750 mmHg 70%
    06:00 -2°C° 0.1 mm 11 mps 751 mmHg 69%
    07:00 -3°C° 0.1 mm 12 mps 752 mmHg 68%
    08:00 -3°C° 0.1 mm 12 mps 753 mmHg 68%
    09:00 -3°C° 0.1 mm 12 mps 753 mmHg 68%
    10:00 -3°C° 0.1 mm 12 mps 754 mmHg 68%
    11:00 -4°C° 0.1 mm 13 mps 754 mmHg 68%
    12:00 -4°C° 0.2 mm 13 mps 755 mmHg 70%
    13:00 -5°C° 0.2 mm 13 mps 756 mmHg 73%
    14:00 -5°C° 0.2 mm 12 mps 757 mmHg 75%
    15:00 -5°C° 0.2 mm 12 mps 757 mmHg 75%
    16:00 -4°C° 0.2 mm 11 mps 758 mmHg 75%
    17:00 -4°C° 0.2 mm 11 mps 758 mmHg 74%
    18:00 -4°C° 0.1 mm 11 mps 759 mmHg 75%
    19:00 -4°C° 0.1 mm 10 mps 760 mmHg 77%
    20:00 -4°C° 0.1 mm 10 mps 761 mmHg 78%
    21:00 -4°C° 0.1 mm 10 mps 761 mmHg 78%
    22:00 -4°C° 0.1 mm 10 mps 762 mmHg 79%
    23:00 -4°C° 0.1 mm 10 mps 763 mmHg 79%

    Day after tomorrow, 21 January, Tuesday

    Time Temperature Precipitation Wind Pressure Humidity
    00:00 -4°C° 0.1 mm 9 mps 763 mmHg 79%
    01:00 -4°C° 0.1 mm 9 mps 764 mmHg 78%
    02:00 -2°C° 0.1 mm 8 mps 764 mmHg 78%
    03:00 -2°C° 0.3 mm 7 mps 764 mmHg 84%
    04:00 -3°C° 0.3 mm 6 mps 764 mmHg 90%
    05:00 -2°C° 0.3 mm 5 mps 764 mmHg 95%
    06:00 -2°C° 0.5 mm 5 mps 764 mmHg 93%
    07:00 -1°C° 0.5 mm 5 mps 764 mmHg 90%
    08:00 -1°C° 0.5 mm 5 mps 765 mmHg 88%
    09:00 -1°C° 0.5 mm 5 mps 765 mmHg 89%
    10:00 0°C° 0.5 mm 4 mps 765 mmHg 90%
    11:00 0°C° 0.5 mm 4 mps 765 mmHg 91%
    12:00 0°C° 0.2 mm 4 mps 765 mmHg 91%
    13:00 +1°C° 0.2 mm 3 mps 766 mmHg 91%
    14:00 +2°C° 0.2 mm 3 mps 766 mmHg 92%
    15:00 +1°C° 0.1 mm 3 mps 765 mmHg 92%
    16:00 +1°C° 0.1 mm 3 mps 765 mmHg 92%
    17:00 +1°C° 0.1 mm 3 mps 765 mmHg 92%
    18:00 +1°C° 0.1 mm 4 mps 765 mmHg 91%
    19:00 +1°C° 0.1 mm 4 mps 765 mmHg 91%
    20:00 +1°C° 0.1 mm 5 mps 765 mmHg 91%
    21:00 +1°C° 0.8 mm 6 mps 764 mmHg 93%
    22:00 0°C° 0.8 mm 7 mps 763 mmHg 95%
    23:00 0°C° 0.8 mm 8 mps 762 mmHg 97%

    22 January, Wednesday

    Time Temperature Precipitation Wind Pressure Humidity
    00:00 +1°C° 1.4 mm 8 mps 761 mmHg 97%
    01:00 +1°C° 1.4 mm 8 mps 760 mmHg 97%
    02:00 +2°C° 1.4 mm 8 mps 759 mmHg 97%
    03:00 +2°C° 2.7 mm 9 mps 757 mmHg 97%
    04:00 +3°C° 2.7 mm 9 mps 756 mmHg 97%
    05:00 +5°C° 2.7 mm 9 mps 755 mmHg 97%
    06:00 +5°C° 2.1 mm 10 mps 754 mmHg 97%
    07:00 +5°C° 2.1 mm 10 mps 753 mmHg 97%
    08:00 +5°C° 2.1 mm 10 mps 752 mmHg 98%
    09:00 +5°C° 1.5 mm 10 mps 751 mmHg 98%
    10:00 +5°C° 1.5 mm 10 mps 750 mmHg 97%
    11:00 +5°C° 1.5 mm 10 mps 750 mmHg 97%
    12:00 +3°C° 0.6 mm 9 mps 750 mmHg 94%
    13:00 +2°C° 0.6 mm 9 mps 749 mmHg 91%
    14:00 +1°C° 0.6 mm 9 mps 749 mmHg 88%
    15:00 0°C° 0.3 mm 10 mps 749 mmHg 87%
    16:00 0°C° 0.3 mm 10 mps 750 mmHg 86%
    17:00 -2°C° 0.3 mm 11 mps 750 mmHg 85%
    18:00 -2°C° 0.2 mm 12 mps 750 mmHg 79%
    19:00 -3°C° 0.2 mm 12 mps 750 mmHg 72%
    20:00 -4°C° 0.2 mm 13 mps 750 mmHg 66%
    21:00 -4°C° 0.2 mm 13 mps 750 mmHg 65%
    22:00 -5°C° 0.2 mm 13 mps 750 mmHg 64%
    23:00 -5°C° 0.2 mm 13 mps 750 mmHg 63%

    23 January, Thursday

    Time Temperature Precipitation Wind Pressure Humidity
    00:00 -5°C° 0.2 mm 13 mps 749 mmHg 62%
    01:00 -5°C° 0.2 mm 14 mps 749 mmHg 60%
    02:00 -5°C° 0.2 mm 14 mps 749 mmHg 59%
    03:00 -5°C° 0.2 mm 14 mps 749 mmHg 61%
    04:00 -5°C° 0.2 mm 14 mps 748 mmHg 63%
    05:00 -5°C° 0.2 mm 14 mps 748 mmHg 66%
    06:00 -5°C° 0.3 mm 14 mps 747 mmHg 66%
    07:00 -5°C° 0.3 mm 15 mps 746 mmHg 66%
    08:00 -5°C° 0.3 mm 15 mps 746 mmHg 66%
    09:00 -7°C° 0.2 mm 15 mps 746 mmHg 65%
    10:00 -7°C° 0.2 mm 15 mps 745 mmHg 65%
    11:00 -7°C° 0.2 mm 16 mps 745 mmHg 64%
    12:00 -7°C° 0.3 mm 15 mps 745 mmHg 69%
    13:00 -7°C° 0.3 mm 15 mps 745 mmHg 73%
    14:00 -8°C° 0.3 mm 14 mps 745 mmHg 78%
    15:00 -8°C° 0.4 mm 14 mps 745 mmHg 76%
    16:00 -8°C° 0.4 mm 14 mps 745 mmHg 75%
    17:00 -6°C° 0.4 mm 14 mps 745 mmHg 74%
    18:00 -6°C° 0.2 mm 14 mps 745 mmHg 73%
    19:00 -6°C° 0.2 mm 14 mps 745 mmHg 72%
    20:00 -6°C° 0.2 mm 13 mps 745 mmHg 72%
    21:00 -7°C° 0.2 mm 13 mps 745 mmHg 75%
    22:00 -7°C° 0.2 mm 12 mps 745 mmHg 78%
    23:00 -7°C° 0.2 mm 12 mps 745 mmHg 81%

    24 January, Friday

    Time Temperature Precipitation Wind Pressure Humidity
    00:00 -7°C° 0.2 mm 11 mps 745 mmHg 80%
    01:00 -7°C° 0.2 mm 11 mps 745 mmHg 79%
    02:00 -8°C° 0.2 mm 10 mps 746 mmHg 78%
    03:00 -7°C° 0.2 mm 10 mps 746 mmHg 81%
    04:00 -6°C° 0.2 mm 9 mps 746 mmHg 83%
    05:00 -6°C° 0.2 mm 9 mps 746 mmHg 86%
    06:00 -6°C° 0.1 mm 7 mps 746 mmHg 85%
    07:00 -6°C° 0.1 mm 5 mps 746 mmHg 84%
    08:00 -5°C° 0.1 mm 3 mps 746 mmHg 83%
    09:00 -4°C° 0 mm 2 mps 746 mmHg 83%
    10:00 -4°C° 0 mm 2 mps 746 mmHg 83%
    11:00 -2°C° 0 mm 1 mps 745 mmHg 83%
    12:00 -5°C° 0 mm 2 mps 745 mmHg 83%
    13:00 -5°C° 0 mm 2 mps 744 mmHg 84%
    14:00 -6°C° 0 mm 3 mps 743 mmHg 84%
    15:00 -7°C° 0 mm 4 mps 742 mmHg 84%
    16:00 -7°C° 0 mm 4 mps 741 mmHg 83%
    17:00 -7°C° 0 mm 5 mps 740 mmHg 82%
    18:00 -7°C° 0 mm 5 mps 739 mmHg 79%
    19:00 -7°C° 0 mm 5 mps 739 mmHg 77%
    20:00 -7°C° 0 mm 5 mps 738 mmHg 75%
    21:00 -7°C° 0 mm 4 mps 738 mmHg 76%
    22:00 -6°C° 0 mm 3 mps 737 mmHg 76%
    23:00 -6°C° 0 mm 3 mps 737 mmHg 77%
    Show more